Погода в Аналипсисе

Греция     38°29′40″N   21°42′24″E
темп.,
°C
ветер,
м/с
пор.,
м/с
влажн.,
%
обл.,
%
осадки,
мм/ч
давл.,
гПа
погр.,
м
18 мая, вт
вт1800:00+14ссз11726 0.0 101419
03:00+13с22735 0.0 101319
06:00+13с22814 0.0 101222
09:00+18з12693 0.0 1013479
12:00+23юз36440 0.0 10131514
15:00+24юз57370 0.0 10131696
18:00+22ююз33360 0.0 1014806
21:00+14в01800 0.0 101513
19 мая, ср
ср1900:00+14с2273100 0.0 101522
03:00+13с22640 0.0 101521
06:00+13ссв22608 0.0 101419
09:00+19зюз11470 0.0 1015302
12:00+25юз34293 0.0 10141108
15:00+25юз46251 0.0 10141583
18:00+22юз35310 0.0 10131260
21:00+15сз01620 0.0 101312
20 мая, чт
чт2000:00+14с216265 0.0 101416
03:00+13с22694 0.0 101320
06:00+12с22751 0.0 101227
09:00+17зюз22653 0.0 1012555
12:00+22юз47421 0.0 10121743
15:00+23юз67375 0.0 10111832
18:00+21зюз56364 0.0 10111607
21:00+14з116290 0.0 101215
21 мая, пт
пт2100:00+11с11720 0.0 101314
03:00+10с11735 0.0 101315
06:00+9ссв227122 0.0 101318
09:00+16юз015013 0.0 1013688
12:00+20юз353637 0.0 10132250
15:00+21ююз453877 0.0 10131812
18:00+20ю344123 0.0 10131267
21:00+14в117118 0.0 101614
22 мая, сб
сб2200:00+13ссв22691 0.0 101720
03:00+12св22560 0.0 101713
06:00+11св22580 0.0 101711
09:00+18ююз10460 0.0 1017388
12:00+22юз32390 0.0 10171481
15:00+23юз44401 0.0 10171733
18:00+21юз34472 0.0 10161127
21:00+14з11810 0.0 101815